Date String (YYYY-MM-DD hh:mm:ss) UTC,Instrument flags,Ambient pressure (hPa),Sample flow (lpm),Bypass flow (lpm),Sample temperature (°C),Ambient temperature (°C),ASC tube jacket temperature (°C),LED temperature (°C),Box temperature (°C),Sample RH (%),Span deviation,Mass concentration (μg/m³),Mass concentration (μg/m³),Mass concentration (μg/m³)
DateTimeUTC,F1_M11,P_M11,Q1_M11,Q2_M11,T1_M11,T2_M11,T3_M11,T4_M11,T5_M11,U1_M11,ZSPAN_M11,X0_M11,X2_M11,X1_M11
2022-07-31 12:00:00,,0829.3,5.00,0.00,29.7,28.4,00.0,38.5,31.6,21.7,0000.0,0008.11,0005.30,0004.97
2022-07-31 12:01:00,,0829.3,5.01,0.00,29.7,28.5,00.0,38.5,31.6,21.7,0000.0,0008.20,0005.31,0004.96
2022-07-31 12:02:00,,0829.3,4.99,0.00,29.7,28.5,00.0,38.6,31.7,21.6,0000.0,0008.77,0005.31,0004.97
2022-07-31 12:03:00,,0829.3,5.01,0.00,29.8,28.6,00.0,38.6,31.7,21.6,0000.0,0008.96,0005.30,0004.97
2022-07-31 12:04:00,,0829.3,4.99,0.00,29.8,28.7,00.0,38.6,31.7,21.6,0000.0,0008.95,0005.29,0004.96
2022-07-31 12:05:00,,0829.4,5.00,0.00,29.8,28.7,00.0,38.6,31.7,21.5,0000.0,0008.99,0005.28,0004.95
2022-07-31 12:06:00,,0829.4,4.99,0.00,29.8,28.8,00.0,38.6,31.8,21.4,0000.0,0008.67,0005.30,0004.95
2022-07-31 12:07:00,,0829.4,5.01,0.00,29.8,28.8,00.0,38.6,31.7,21.4,0000.0,0008.64,0005.28,0004.94
2022-07-31 12:08:00,,0829.5,5.00,0.00,29.9,28.9,00.0,38.6,31.8,21.3,0000.0,0008.70,0005.30,0004.93
2022-07-31 12:09:00,,0829.5,4.99,0.00,29.9,28.9,00.0,38.6,31.8,21.3,0000.0,0008.74,0005.31,0004.93
2022-07-31 12:10:00,,0829.5,5.01,0.00,29.9,28.9,00.0,38.7,31.9,21.3,0000.0,0008.74,0005.30,0004.92
2022-07-31 12:11:00,,0829.5,4.99,0.00,29.9,29.0,00.0,38.7,31.9,21.3,0000.0,0008.69,0005.27,0004.92
2022-07-31 12:12:00,,0829.5,5.01,0.00,30.0,29.0,00.0,38.7,31.9,21.4,0000.0,0008.68,0005.26,0004.92
2022-07-31 12:13:00,,0829.5,4.99,0.00,30.0,28.6,00.0,38.7,31.8,21.4,0000.0,0008.87,0005.25,0004.92
2022-07-31 12:14:00,,0829.5,5.01,0.00,29.9,27.9,00.0,38.6,31.7,21.4,0000.0,0008.67,0005.25,0004.91
2022-07-31 12:15:00,,0829.5,5.01,0.00,29.9,27.7,00.0,38.6,31.6,21.4,0000.0,0008.64,0005.24,0004.92
2022-07-31 12:16:00,,0829.5,5.00,0.00,29.8,27.7,00.0,38.6,31.5,21.5,0000.0,0008.56,0005.24,0004.93
2022-07-31 12:17:00,,0829.5,5.00,0.00,29.8,27.7,00.0,38.6,31.5,21.5,0000.0,0008.52,0005.23,0004.94
2022-07-31 12:18:00,,0829.5,5.00,0.00,29.7,27.9,00.0,38.6,31.5,21.5,0000.0,0008.58,0005.25,0004.94
2022-07-31 12:19:00,,0829.5,5.00,0.00,29.7,28.0,00.0,38.6,31.5,21.5,0000.0,0008.53,0005.24,0004.96
2022-07-31 12:20:00,,0829.5,5.00,0.00,29.7,28.1,00.0,38.6,31.5,21.5,0000.0,0008.58,0005.26,0004.97
2022-07-31 12:21:00,,0829.5,5.00,0.00,29.7,28.2,00.0,38.6,31.5,21.5,0000.0,0008.68,0005.29,0004.99
2022-07-31 12:22:00,,0829.5,5.01,0.00,29.7,28.3,00.0,38.6,31.6,21.6,0000.0,0008.76,0005.33,0005.00
2022-07-31 12:23:00,,0829.5,4.99,0.00,29.7,28.4,00.0,38.6,31.6,21.6,0000.0,0008.77,0005.35,0005.01
2022-07-31 12:24:00,,0829.6,5.01,0.00,29.7,28.5,00.0,38.6,31.7,21.5,0000.0,0008.09,0005.36,0005.01
2022-07-31 12:25:00,,0829.5,4.99,0.00,29.8,28.5,00.0,38.6,31.7,21.4,0000.0,0008.23,0005.36,0005.02
2022-07-31 12:26:00,,0829.6,5.00,0.00,29.8,28.6,00.0,38.6,31.7,21.4,0000.0,0008.28,0005.40,0005.04
2022-07-31 12:27:00,,0829.6,5.01,0.00,29.8,28.7,00.0,38.6,31.7,21.4,0000.0,0008.33,0005.42,0005.05
2022-07-31 12:28:00,,0829.6,5.00,0.00,29.8,28.7,00.0,38.6,31.8,21.4,0000.0,0008.48,0005.41,0005.05
2022-07-31 12:29:00,,0829.6,5.00,0.00,29.8,28.8,00.0,38.6,31.8,21.6,0000.0,0008.51,0005.41,0005.05
2022-07-31 12:30:00,,0829.6,5.00,0.00,29.9,28.8,00.0,38.6,31.8,21.4,0000.0,0008.52,0005.39,0005.04
2022-07-31 12:31:00,,0829.6,4.99,0.00,29.9,28.9,00.0,38.6,31.8,21.3,0000.0,0008.39,0005.38,0005.05
2022-07-31 12:32:00,,0829.6,4.99,0.00,29.9,28.9,00.0,38.7,31.9,21.2,0000.0,0008.30,0005.36,0005.05
2022-07-31 12:33:00,,0829.7,5.00,0.00,29.9,28.9,00.0,38.7,31.9,21.1,0000.0,0008.26,0005.35,0005.06
2022-07-31 12:34:00,,0829.7,5.00,0.00,30.0,29.0,00.0,38.7,31.9,21.1,0000.0,0008.17,0005.32,0005.06
2022-07-31 12:35:00,,0829.9,4.99,0.00,30.0,29.0,00.0,38.7,31.9,21.1,0000.0,0008.09,0005.32,0005.06
2022-07-31 12:36:00,,0829.6,5.00,0.00,30.0,28.5,00.0,38.7,31.8,21.0,0000.0,0007.95,0005.32,0005.06
2022-07-31 12:37:00,,0829.7,5.00,0.00,29.9,27.6,00.0,38.7,31.7,21.1,0000.0,0007.97,0005.30,0005.06
2022-07-31 12:38:00,,0829.7,5.00,0.00,29.9,27.3,00.0,38.6,31.5,21.2,0000.0,0008.47,0005.29,0005.06
2022-07-31 12:39:00,,0829.6,4.99,0.00,29.8,27.2,00.0,38.6,31.4,21.3,0000.0,0008.43,0005.29,0005.08
2022-07-31 12:40:00,,0829.7,5.01,0.00,29.7,27.3,00.0,38.6,31.4,21.4,0000.0,0008.33,0005.28,0005.08
2022-07-31 12:41:00,,0829.7,5.00,0.00,29.7,27.5,00.0,38.5,31.4,21.5,0000.0,0008.36,0005.30,0005.09
2022-07-31 12:42:00,,0829.7,5.00,0.00,29.6,27.6,00.0,38.5,31.4,21.5,0000.0,0008.45,0005.33,0005.08
2022-07-31 12:43:00,,0829.8,5.00,0.00,29.6,27.8,00.0,38.5,31.4,21.5,0000.0,0008.45,0005.32,0005.08
2022-07-31 12:44:00,,0829.8,5.01,0.00,29.6,27.9,00.0,38.5,31.4,21.6,0000.0,0008.41,0005.30,0005.08
2022-07-31 12:45:00,,0829.8,5.00,0.00,29.6,28.1,00.0,38.5,31.5,21.6,0000.0,0008.34,0005.29,0005.08
2022-07-31 12:46:00,,0829.9,4.99,0.00,29.6,28.2,00.0,38.5,31.5,21.7,0000.0,0008.34,0005.30,0005.08
2022-07-31 12:47:00,,0829.9,4.99,0.00,29.6,28.3,00.0,38.5,31.5,21.9,0000.0,0008.84,0005.32,0005.08
2022-07-31 12:48:00,,0829.9,5.00,0.00,29.7,28.4,00.0,38.5,31.6,21.8,0000.0,0008.93,0005.35,0005.08
2022-07-31 12:49:00,,0829.8,4.99,0.00,29.7,28.5,00.0,38.5,31.6,21.8,0000.0,0008.47,0005.36,0005.08
2022-07-31 12:50:00,,0829.8,5.01,0.00,29.7,28.5,00.0,38.5,31.6,21.7,0000.0,0008.45,0005.40,0005.06
2022-07-31 12:51:00,,0829.8,4.99,0.00,29.7,28.6,00.0,38.5,31.7,21.7,0000.0,0008.52,0005.42,0005.06
2022-07-31 12:52:00,,0829.9,5.01,0.00,29.8,28.7,00.0,38.5,31.7,21.8,0000.0,0008.55,0005.42,0005.06
2022-07-31 12:53:00,,0829.9,5.00,0.00,29.8,28.7,00.0,38.5,31.7,21.6,0000.0,0008.77,0005.39,0005.06
2022-07-31 12:54:00,,0829.9,5.00,0.00,29.8,28.8,00.0,38.6,31.7,21.6,0000.0,0008.99,0005.38,0005.07
2022-07-31 12:55:00,,0829.8,5.00,0.00,29.8,28.8,00.0,38.6,31.8,21.7,0000.0,0009.19,0005.39,0005.07
2022-07-31 12:56:00,,0829.8,5.00,0.00,29.9,28.9,00.0,38.6,31.8,21.6,0000.0,0009.22,0005.41,0005.07
2022-07-31 12:57:00,,0829.9,5.00,0.00,29.9,28.9,00.0,38.6,31.8,21.5,0000.0,0009.26,0005.42,0005.07
2022-07-31 12:58:00,,0830.1,5.00,0.00,29.9,29.0,00.0,38.6,31.9,21.4,0000.0,0008.85,0005.40,0005.07
2022-07-31 12:59:00,,0829.9,5.01,0.00,29.9,29.0,00.0,38.7,31.9,21.4,0000.0,0008.73,0005.38,0005.07
